User: anonymous   Login
Location: Nelson
(41.2830°S, 173.2830°E)
Time: 12:44:37
(UTC+13:00)
Language:

Cosmos 2263 Rocket - Orbit

View from above orbital plane
View from above orbital plane
View from above satellite
View from above satellite

Ground track
Ground track

The orbit data is extracted from the following two-line orbital elements,

1 22803U 93059B   19290.47308901 -.00000226  00000-0 -88966-4 0  9997
2 22803  70.9894 253.4215 0016901 175.7982 184.3287 14.16815534349009
Epoch (UTC): 17 October 2019 11:21:14
Eccentricity: 0.0016901
inclination: 70.9894°
perigee height: 824 km
apogee height: 848 km
right ascension of ascending node: 253.4215°
argument of perigee: 175.7982°
revolutions per day: 14.16815534
mean anomaly at epoch: 184.3287°
orbit number at epoch: 34900

The dashed part of the orbit path shows where the satellite is in the earth's shadow,  

DLR